• In Deutschland
  • Länderverzeichnis
  • Für 7 Tage
  • Wassertemperatur
  • Satellitenkarten
  • Wetterkarte
  • Widgets
  • user-avatar
    Anmelden

    Stündliche Wetter Sekondi

    Heute, 15 Dezember, Freitag

    Zeit Temperatur Niederschläge Wind Luftdruck Luftfeuchtigkeit
    00:00 +27°C° 0 mm 3 m/S 758 mmHg 89%
    01:00 +27°C° 0 mm 3 m/S 757 mmHg 91%
    02:00 +27°C° 0 mm 3 m/S 757 mmHg 92%
    03:00 +26°C° 0 mm 3 m/S 757 mmHg 94%
    04:00 +26°C° 0 mm 2 m/S 757 mmHg 94%
    05:00 +26°C° 0 mm 2 m/S 757 mmHg 94%
    06:00 +26°C° 0 mm 2 m/S 757 mmHg 94%
    07:00 +28°C° 0 mm 2 m/S 758 mmHg 87%
    08:00 +29°C° 0 mm 2 m/S 758 mmHg 81%
    09:00 +30°C° 0 mm 2 m/S 758 mmHg 74%
    10:00 +31°C° 0 mm 3 m/S 758 mmHg 69%
    11:00 +33°C° 0 mm 3 m/S 757 mmHg 65%
    12:00 +34°C° 0 mm 3 m/S 757 mmHg 60%
    13:00 +34°C° 0 mm 3 m/S 757 mmHg 60%
    14:00 +34°C° 0 mm 3 m/S 756 mmHg 60%
    15:00 +34°C° 0 mm 3 m/S 755 mmHg 60%
    16:00 +33°C° 0,2 mm 3 m/S 756 mmHg 66%
    17:00 +30°C° 0,2 mm 3 m/S 756 mmHg 72%
    18:00 +29°C° 0,2 mm 3 m/S 756 mmHg 78%
    19:00 +29°C° 0 mm 3 m/S 757 mmHg 80%
    20:00 +28°C° 0 mm 3 m/S 757 mmHg 83%
    21:00 +28°C° 0 mm 3 m/S 758 mmHg 85%
    22:00 +27°C° 0 mm 3 m/S 758 mmHg 87%
    23:00 +27°C° 0 mm 3 m/S 758 mmHg 88%

    Morgen, 16 Dezember, Samstag

    Zeit Temperatur Niederschläge Wind Luftdruck Luftfeuchtigkeit
    00:00 +27°C° 0 mm 3 m/S 758 mmHg 90%
    01:00 +27°C° 0 mm 3 m/S 757 mmHg 91%
    02:00 +26°C° 0 mm 3 m/S 757 mmHg 92%
    03:00 +26°C° 0 mm 3 m/S 756 mmHg 93%
    04:00 +26°C° 0 mm 3 m/S 756 mmHg 94%
    05:00 +26°C° 0 mm 2 m/S 757 mmHg 94%
    06:00 +26°C° 0 mm 2 m/S 757 mmHg 94%
    07:00 +27°C° 0 mm 3 m/S 757 mmHg 87%
    08:00 +29°C° 0 mm 3 m/S 758 mmHg 79%
    09:00 +31°C° 0 mm 3 m/S 758 mmHg 72%
    10:00 +33°C° 0 mm 3 m/S 758 mmHg 67%
    11:00 +34°C° 0 mm 3 m/S 758 mmHg 61%
    12:00 +35°C° 0 mm 4 m/S 758 mmHg 56%
    13:00 +35°C° 0,1 mm 4 m/S 757 mmHg 58%
    14:00 +34°C° 0,1 mm 4 m/S 756 mmHg 60%
    15:00 +34°C° 0,1 mm 4 m/S 756 mmHg 61%
    16:00 +33°C° 0,1 mm 4 m/S 756 mmHg 67%
    17:00 +32°C° 0,1 mm 4 m/S 756 mmHg 73%
    18:00 +29°C° 0,1 mm 4 m/S 756 mmHg 78%
    19:00 +29°C° 0 mm 4 m/S 757 mmHg 81%
    20:00 +28°C° 0 mm 4 m/S 757 mmHg 83%
    21:00 +28°C° 0 mm 4 m/S 758 mmHg 86%
    22:00 +28°C° 0 mm 4 m/S 758 mmHg 87%
    23:00 +27°C° 0 mm 4 m/S 758 mmHg 88%

    übermorgen, 17 Dezember, Sonntag

    Zeit Temperatur Niederschläge Wind Luftdruck Luftfeuchtigkeit
    00:00 +27°C° 0 mm 3 m/S 757 mmHg 90%
    01:00 +27°C° 0 mm 3 m/S 757 mmHg 91%
    02:00 +27°C° 0 mm 4 m/S 756 mmHg 91%
    03:00 +27°C° 0 mm 4 m/S 756 mmHg 92%
    04:00 +27°C° 0 mm 3 m/S 756 mmHg 93%
    05:00 +27°C° 0 mm 3 m/S 756 mmHg 93%
    06:00 +26°C° 0 mm 3 m/S 756 mmHg 94%
    07:00 +28°C° 0 mm 3 m/S 757 mmHg 88%
    08:00 +29°C° 0 mm 3 m/S 758 mmHg 82%
    09:00 +30°C° 0 mm 4 m/S 758 mmHg 76%
    10:00 +32°C° 0 mm 4 m/S 758 mmHg 74%
    11:00 +32°C° 0 mm 4 m/S 757 mmHg 73%
    12:00 +32°C° 0 mm 4 m/S 757 mmHg 71%
    13:00 +33°C° 0 mm 4 m/S 756 mmHg 70%
    14:00 +33°C° 0 mm 4 m/S 756 mmHg 69%
    15:00 +33°C° 0 mm 4 m/S 755 mmHg 67%
    16:00 +32°C° 0,1 mm 4 m/S 755 mmHg 72%
    17:00 +30°C° 0,1 mm 4 m/S 756 mmHg 76%
    18:00 +29°C° 0,1 mm 4 m/S 756 mmHg 80%
    19:00 +29°C° 0 mm 4 m/S 757 mmHg 83%
    20:00 +28°C° 0 mm 4 m/S 757 mmHg 86%
    21:00 +28°C° 0 mm 4 m/S 758 mmHg 88%
    22:00 +28°C° 0 mm 4 m/S 758 mmHg 89%
    23:00 +27°C° 0 mm 3 m/S 757 mmHg 90%

    18 Dezember, Montag

    Zeit Temperatur Niederschläge Wind Luftdruck Luftfeuchtigkeit
    00:00 +27°C° 0 mm 3 m/S 757 mmHg 91%
    01:00 +27°C° 0 mm 4 m/S 757 mmHg 92%
    02:00 +27°C° 0 mm 4 m/S 756 mmHg 93%
    03:00 +27°C° 0 mm 4 m/S 756 mmHg 93%
    04:00 +27°C° 0 mm 4 m/S 756 mmHg 94%
    05:00 +27°C° 0 mm 4 m/S 756 mmHg 94%
    06:00 +27°C° 0 mm 4 m/S 757 mmHg 95%
    07:00 +28°C° 0 mm 4 m/S 757 mmHg 88%
    08:00 +29°C° 0 mm 4 m/S 757 mmHg 81%
    09:00 +32°C° 0 mm 4 m/S 758 mmHg 75%
    10:00 +32°C° 0,2 mm 4 m/S 758 mmHg 72%
    11:00 +33°C° 0,2 mm 4 m/S 757 mmHg 69%
    12:00 +34°C° 0,2 mm 4 m/S 757 mmHg 65%
    13:00 +33°C° 0,7 mm 4 m/S 756 mmHg 67%
    14:00 +33°C° 0,7 mm 5 m/S 756 mmHg 69%
    15:00 +33°C° 0,7 mm 5 m/S 755 mmHg 71%
    16:00 +32°C° 0,5 mm 4 m/S 755 mmHg 75%
    17:00 +30°C° 0,5 mm 4 m/S 756 mmHg 80%
    18:00 +29°C° 0,5 mm 4 m/S 756 mmHg 85%
    19:00 +28°C° 0,3 mm 4 m/S 756 mmHg 87%
    20:00 +28°C° 0,3 mm 3 m/S 757 mmHg 89%
    21:00 +27°C° 0,3 mm 3 m/S 758 mmHg 91%
    22:00 +27°C° 0 mm 3 m/S 757 mmHg 92%
    23:00 +27°C° 0 mm 3 m/S 757 mmHg 93%

    19 Dezember, Dienstag

    Zeit Temperatur Niederschläge Wind Luftdruck Luftfeuchtigkeit
    00:00 +27°C° 0 mm 3 m/S 757 mmHg 93%
    01:00 +27°C° 0 mm 3 m/S 757 mmHg 93%
    02:00 +26°C° 0 mm 3 m/S 756 mmHg 94%
    03:00 +26°C° 0 mm 3 m/S 756 mmHg 94%
    04:00 +26°C° 0 mm 3 m/S 756 mmHg 94%
    05:00 +26°C° 0 mm 3 m/S 756 mmHg 94%
    06:00 +26°C° 0 mm 3 m/S 757 mmHg 94%
    07:00 +27°C° 0 mm 4 m/S 757 mmHg 88%
    08:00 +29°C° 0 mm 4 m/S 758 mmHg 82%
    09:00 +30°C° 0 mm 4 m/S 758 mmHg 76%
    10:00 +32°C° 0,1 mm 4 m/S 758 mmHg 71%
    11:00 +33°C° 0,1 mm 4 m/S 757 mmHg 66%
    12:00 +34°C° 0,1 mm 4 m/S 757 mmHg 61%
    13:00 +34°C° 0,9 mm 4 m/S 756 mmHg 64%
    14:00 +33°C° 0,9 mm 5 m/S 756 mmHg 68%
    15:00 +32°C° 0,9 mm 5 m/S 755 mmHg 71%
    16:00 +30°C° 0,2 mm 4 m/S 756 mmHg 75%
    17:00 +29°C° 0,2 mm 4 m/S 756 mmHg 80%
    18:00 +28°C° 0,2 mm 4 m/S 756 mmHg 84%
    19:00 +28°C° 0 mm 3 m/S 757 mmHg 86%
    20:00 +28°C° 0 mm 3 m/S 757 mmHg 88%
    21:00 +27°C° 0 mm 3 m/S 758 mmHg 90%
    22:00 +27°C° 0,1 mm 3 m/S 757 mmHg 91%
    23:00 +27°C° 0,1 mm 3 m/S 757 mmHg 92%

    20 Dezember, Mittwoch

    Zeit Temperatur Niederschläge Wind Luftdruck Luftfeuchtigkeit
    00:00 +27°C° 0,1 mm 2 m/S 757 mmHg 93%
    01:00 +26°C° 0 mm 2 m/S 756 mmHg 94%
    02:00 +26°C° 0 mm 2 m/S 756 mmHg 94%
    03:00 +26°C° 0 mm 2 m/S 756 mmHg 95%
    04:00 +26°C° 0 mm 2 m/S 756 mmHg 95%
    05:00 +26°C° 0 mm 2 m/S 756 mmHg 95%
    06:00 +26°C° 0 mm 2 m/S 756 mmHg 95%
    07:00 +27°C° 0 mm 3 m/S 757 mmHg 89%
    08:00 +29°C° 0 mm 3 m/S 757 mmHg 82%
    09:00 +30°C° 0 mm 3 m/S 758 mmHg 76%
    10:00 +31°C° 0 mm 3 m/S 757 mmHg 70%
    11:00 +33°C° 0 mm 3 m/S 757 mmHg 65%
    12:00 +35°C° 0 mm 3 m/S 757 mmHg 59%
    13:00 +34°C° 0,3 mm 4 m/S 756 mmHg 61%
    14:00 +34°C° 0,3 mm 4 m/S 756 mmHg 63%
    15:00 +33°C° 0,3 mm 4 m/S 755 mmHg 65%
    16:00 +32°C° 0,3 mm 4 m/S 755 mmHg 70%
    17:00 +30°C° 0,3 mm 3 m/S 756 mmHg 76%
    18:00 +29°C° 0,3 mm 3 m/S 756 mmHg 81%
    19:00 +28°C° 0 mm 3 m/S 757 mmHg 83%
    20:00 +28°C° 0 mm 3 m/S 757 mmHg 85%
    21:00 +27°C° 0 mm 3 m/S 757 mmHg 88%
    22:00 +27°C° 0 mm 3 m/S 757 mmHg 88%
    23:00 +27°C° 0 mm 3 m/S 757 mmHg 89%
    Mehr zeigen